Starlink 1302

operational
NORAD ID: 45375 Int'l Des: 2020-019 Owner: SPXS Country: US Constellation: starlink
LEOCIRCULARSTARLINK_TYPE

Starlink 1302について

説明を読み込み中...

リアルタイム位置

3D地球を読み込み中...

次回通過

高度履歴

Altitude vs Time

uPlot chart will show altitude changes over time

軌道要素

1 45375U 20019R 25257.95752101 .00000410 00000-0 46410-4 0 9991
2 45375 53.0543 235.5132 0001321 78.6838 281.4300 15.06395882303241
Epoch: Sep 14, 2025 • Age: 17 hours

現在のステータス

高度 548.7 km
速度 7.59 km/s
衛星直下点 31.54°N, 157.45°E
打ち上げ日 Mar 18, 2020
運用期間 5.4 years
タイプ internet

技術仕様

分類 Payload
質量 260.00 kg
乾燥質量 248.00 kg
総質量 260.00 kg
長さ 0.20 m
直径 2.80 m
スパン 9.00 m
形状 Box + pan
製造者 SPXS
バスタイプ Starlink
フェーズステータス In Orbit
所有者/国 SPXS/US

大規模コンステレーション

Loading constellations...